Regional Weather Roundup
Issued by NWS

Home | Current Version | Previous Version | Text Only | Print | Product List | Glossary Off
Versions: 1 2 3 4 5 6 7 8 9 10 11 12 13 14 15 16 17 18 19 20 21 22 23 24 25 26 27

000
ASUS45 KBOI 181110
RWRID

IDAHO REGIONAL WEATHER ROUNDUP
NATIONAL WEATHER SERVICE BOISE ID
500 AM MDT FRI AUG 18 2017

NOTE: "FAIR" INDICATES FEW OR NO CLOUDS BELOW 12000 FEET
WITH NO SIGNIFICANT WEATHER AND/OR OBSTRUCTIONS TO VISIBILITY

IDZ012-014-181200-
SOUTHWEST IDAHO


CITY           SKY/WX    TMP DP  RH WIND       PRES   REMARKS
BOISE          CLEAR     62  38  40 SE3       30.06R
CALDWELL       CLEAR     61  46  57 SW6       30.05R
MOUNTAIN HOME  CLEAR     58  37  46 W10       30.05S
$$

IDZ016-017-181200-
SOUTHCENTRAL IDAHO


CITY           SKY/WX    TMP DP  RH WIND       PRES   REMARKS
BURLEY         CLEAR     56  41  57 SW9       30.11S
JEROME         CLEAR     61  39  44 S6        30.11S
TWIN FALLS     CLEAR     63  38  39 S14       30.11F
$$

IDZ019>023-181200-
SOUTHEAST IDAHO


CITY           SKY/WX    TMP DP  RH WIND       PRES   REMARKS
IDAHO FALLS    CLEAR     52  40  63 CALM      30.16S
POCATELLO      CLEAR     51  36  56 E6        30.16R
REXBURG        CLEAR     48  41  76 N6        30.17S
$$

IDZ006-010-011-018-031-032-181200-
CENTRAL IDAHO MOUNTAINS


CITY           SKY/WX    TMP DP  RH WIND       PRES   REMARKS
MCCALL         CLEAR     47  37  68 CALM      30.18S
HAILEY         CLEAR     54  41  62 NW6       30.19R
STANLEY          N/A     38  32  79 CALM      30.30S
SALMON         CLEAR     48  40  73 CALM      30.17S
CHALLIS        CLEAR     53  36  52 CALM      30.19S
$$

IDZ002-004-006-007-026-181200-
NORTHERN IDAHO


CITY           SKY/WX    TMP DP  RH WIND       PRES   REMARKS
LEWISTON       CLEAR     63  40  42 CALM      30.04R
LOWELL           N/A     55  48  77 CALM      30.10S
COEUR D`ALENE  CLEAR     59  49  69 VRB3      30.06S
MULLAN PASS    CLEAR     56  35  45 VRB3      30.22S
$$




USA.gov is the U.S. government's official web portal to all federal, state and local government web resources and services.